Flag for India Weather past 2 weeks in Nãgpur, Maharashtra, India

Now
73 °F

Overcast.


Feels Like: 70 °F
Forecast: 75 / 88 °F
Wind: 6 mph from Northwest

Location: Nagpur Sonegaon

Current Time: Aug 29, 2014 at 6:59:58 AM

Latest Report: Aug 29, 2014 at 6:10 AM


Visibility: 2 mi

Pressure: 29.65 "Hg

Humidity: 94%

Dew point: 72 °F

Location of NãgpurLocation

Historic Weather in Nãgpur — Graph

°F

Nãgpur temperature yesterday

Maximum temperature yesterday: 88 °F (at 12:40 PM)
Minimum temperature yesterday: 73 °F (at 3:10 AM)
Average temperature yesterday: 78 °F

Past Weeks' High & Low Weather Summary

 TemperatureHumidityPressure
High99 °F (Aug 19, 1:40 PM)100% (Aug 21, 4:10 PM)29.89 "Hg (Aug 21, 4:10 PM)
Low72 °F (Aug 23, 12:10 AM)38% (Aug 21, 10:40 AM)29.59 "Hg (Aug 27, 3:40 PM)
Average82 °F81%29.75 "Hg
* Reported Aug 14 6:40 AM — Aug 29 4:40 AM, Nãgpur, Weather by CustomWeather, © 2014

Note: Actual official high and low records may vary slightly from our data, if they occured in-between our weather recording intervals... More about our weather records

Advertising

Nãgpur weather history for previous 24 hours

 ConditionsComfort  
Time TempWeatherWind HumidityBarometerVisibility
4:40 AM
Aug 29
73 °FLight rain. Passing clouds.7 mph100%29.62 "Hg2 mi
3:40 AM73 °FPassing clouds.5 mph94%29.65 "Hg2 mi
2:40 AM73 °FOvercast.6 mph94%29.65 "Hg2 mi
1:40 AM73 °FOvercast.2 mph94%29.65 "Hg2 mi
1:10 AM73 °FOvercast.2 mph94%29.68 "Hg2 mi
12:40 AM73 °FOvercast.3 mph94%29.68 "Hg2 mi
11:40 PM
Aug 28
73 °FOvercast.5 mph94%29.68 "Hg2 mi
11:10 PM73 °FOvercast.6 mph94%29.68 "Hg2 mi
10:40 PM73 °FOvercast.7 mph94%29.68 "Hg2 mi
10:10 PM73 °FOvercast.8 mph94%29.68 "Hg2 mi
9:40 PM73 °FOvercast.8 mph94%29.68 "Hg2 mi
8:40 PM75 °FLight rain. Passing clouds.7 mph89%29.68 "Hg2 mi
8:10 PM75 °FRain. Passing clouds.7 mph94%29.71 "Hg2 mi
7:10 PM75 °FThunderstorms. Partly cloudy.7 mph89%29.68 "Hg2 mi
6:10 PM75 °FThunderstorms. Broken clouds.9 mph89%29.65 "Hg2 mi
5:10 PM79 °FBroken clouds.6 mph84%29.62 "Hg2 mi
4:40 PM79 °FScattered clouds.6 mph84%29.62 "Hg2 mi
4:10 PM77 °FThunderstorms. Broken clouds.6 mph89%29.62 "Hg2 mi
3:40 PM79 °FThunderstorms. Scattered clouds.9 mph79%29.62 "Hg2 mi
2:40 PM88 °FBroken clouds.7 mph75%29.62 "Hg3 mi
2:10 PM88 °FBroken clouds.9 mph79%29.68 "Hg3 mi
1:40 PM88 °FBroken clouds.9 mph79%29.68 "Hg3 mi
1:10 PM88 °FBroken clouds.9 mph75%29.68 "Hg4 mi
12:40 PM88 °FBroken clouds.8 mph75%29.68 "Hg4 mi
11:40 AM86 °FScattered clouds.8 mph79%29.71 "Hg4 mi
11:10 AM84 °FBroken clouds.7 mph79%29.71 "Hg4 mi
10:40 AM82 °FBroken clouds.7 mph89%29.74 "Hg4 mi
9:40 AM79 °FBroken clouds.6 mph94%29.74 "Hg4 mi
9:10 AM77 °FBroken clouds.6 mph94%29.71 "Hg3 mi
8:10 AM75 °FBroken clouds.5 mph94%29.74 "Hg2 mi
7:40 AM73 °FMore clouds than sun.5 mph100%29.74 "Hg2 mi
7:10 AM73 °FMore clouds than sun.7 mph94%29.71 "Hg2 mi
6:40 AM73 °FMore clouds than sun.7 mph94%29.71 "Hg2 mi
Weather by CustomWeather, © 2014

See weather overviewHow to use our weather pages